Weather in Sekachi

Russia / Volgograd Oblast     50°29′50″N   43°37′21″E
temp.,
°C
wind,
m/s
gust,
m/s
humid.,
%
clouds,
%
prec.,
mm/h
press.,
hPa
HPBL,
m
25 february, thu
thu2500:00−19ssw238299 0.0 1040101
03:00−17ssw368399 0.0 1038207
06:00−15ssw5994100 0.1 1036340
09:00−13ssw6109299 0.3 1033426
12:00−11ssw71193100 0.8 1031525
15:00−9sw81394100 1.6 1027553
18:00−8sw81393100 1.3 1024439
21:00−5sw71394100 2.4 1021409
26 february, fri
fri2600:00−2wsw71396100 0.6 1018403
03:00+1w51197100 0.6 1018335
06:00+1w5998100 0.4 1017252
09:00+1wnw4999100 0.6 1018223
12:00+1w4999100 0.1 1017234
15:00+2w61299100 0.5 1016352
18:00+2wsw51399100 0.0 1014362
21:00+2w61498100 0.1 1013398
27 february, sat
sat2700:00+2wsw81597100 0.2 1010411
03:00+2w71396100 0.3 1010436
06:00+1w51296100 0.0 1008511
09:00+1w61394100 0.0 1008507
12:00+1w612100100 0.1 1007563
15:00+1wnw71298100 0.2 1007608
18:000w6129598 0.1 1007564
21:000w7129799 0.1 1007563
28 february, sun
sun2800:000wnw71297100 0.1 1007572
03:000wnw61194100 0.3 1008465
06:00−4nnw499197 0.3 1010384
09:00−6nnw478972 0.3 1011491
12:00−6nnw568698 0.0 1013540
15:00−6nnw578799 0.1 1015575
18:00−8nnw588999 0.0 1016563
21:00−8nnw499196 0.1 1019530
1 march, mon
mon100:00−9nnw489250 0.0 1021374
03:00−10nnw369558 0.0 1022263
06:00−10nnw479489 0.0 1023352
09:00−10nnw478877 0.0 1025441
12:00−9nnw578584 0.0 1026538
15:00−8nnw468592 0.0 1027528
18:00−9nnw499297 0.0 1028408
21:00−10nw369568 0.0 1030168